FREGAT DEB, 45641

Orbit data source: Space-Track

FREGAT DEB, 45641 is space debris in LEO originally from a launch on Mon, 18 Jul 2011 UTC launched from the Tyuratam Missile And Space Complex (TTMTR). Debris objects in space refer to the collection of defunct objects orbiting the Earth. Examples of debris include non-operational satellites, rocket bodies, and fragments generated from explosions, collisions, or faulty payload assembly.

Not visible in the next 10 days
Identifier
45641, 2011-037AH
Orbit
LEO
Country
Flag of CISCIS
Related business
Manufacturer
Lavochkin
Mission
Spacecraft
Bus & Motor
Unknown
Mass
Unknown
Launch date (UTC)
2011-07-18 (14 years ago)
Launch vehicle
Unknown
Launch site
Tyuratam Missile And Space Complex (TTMTR)
Object type
Payload
Rocket body
Debris
Shape & HBR
Unknown shape, 0.3 m
Radar Cross Section
Medium (>0.1 m² and <1 m²)

Expand to show TLE details & history
Last TLE update: 2 weeks ago

TLE from 2 weeks ago
0 FREGAT DEB
1 45641U 11037AH  25334.08815582  .05208811  45368-1  10082-1 0  9990
2 45641  51.6458 262.7727 0037525 299.2744  60.4518 16.02393725257830
Epoch: 2025-11-30T02:06Z
TLE epoch observation values (Epoch: 2025-11-30T02:06:56.662Z)
Latitude
-0.00007°
Longitude
161.82952°
Altitude
256.323 km
Speed
7.762 km/s
True Right ascension
17h 31m 05s
True Declination
0° 00' 00"
Sunlit
Object was in daylight at epoch
Visualization orbit readout
Latitude
Unknown
Longitude
Unknown
Altitude
Unknown
Speed
Unknown
Apparent Right ascension
Unknown
Apparent Declination
Unknown
Sunlit
N/A
Visualization observer readout
Local Sidereal Time
14:00:48
Azimuth
Unknown
Elevation
Unknown
Doppler factor
Unknown
Orbital elements
Apogee altitude
293.251 km
Perigee altitude
243.369 km
Semi-major axis
6,646.447 km
Eccentricity
0.00375
Inclination
51.6458°
RAAN
262.7727°
Arg. of periapsis
299.2744°
True anomaly
60.82674°
Mean anomaly
60.4518°
Eccentric anomaly
60.63919°
Mean motion
4.00552 °/min
Orbital period
89.88 mins
BSTAR
0.010082
Loading maneuver chart data...
Computing Atmospheric mass density...
Loading historical data...
Loading historical data...
Loading historical data...
Loading historical data...
Loading historical data...
Loading historical data...
Loading historical data...

Documentation

Showing up to 5 results
|